Weather History for Quakertown, PA

Change the Weather History Date:

Saturday, August 9, 2014

  Actual Average (KABE) Record (KABE)
Temperature  
Mean Temperature 68 °F 73 °F  
Max Temperature 82 °F 83 °F 98 °F (2001)
Min Temperature 53 °F 62 °F 50 °F (1989)
Degree Days  
Heating Degree Days 0 0  
Month to date heating degree days 0  
Since 1 June heating degree days 36  
Since 1 July heating degree days 3  
Cooling Degree Days 2 8  
Month to date cooling degree days 72  
Year to date cooling degree days 537  
Since 1 June cooling degree days 492  
Growing Degree Days 18 (Base 50)    
Moisture  
Dew Point 56 °F    
Average Humidity 69    
Maximum Humidity 100    
Minimum Humidity 34    
Precipitation  
Precipitation 0.00 in 0.13 in 3.30 in (1942)
Month to date precipitation 1.23  
Year to date precipitation 27.31  
Snow  
Snow 0.00 in 0.00 in 0.00 in (2002)
Month to date snowfall 0.0  
Since 1 June snowfall 0.0  
Since 1 July snowfall 0.0  
Snow Depth -    
Sea Level Pressure  
Sea Level Pressure 30.13 in    
Wind  
Wind Speed 1 mph (NNW)    
Max Wind Speed 7 mph    
Max Gust Speed -    
Visibility 10 miles    
Events      
T = Trace of Precipitation, MM = Missing Value Source: NWS Daily Summary

Daily Weather History Graph

Daily Weather History Graph

Search for Another Location

Airport:

Trip Planner

Search our weather history database for the weather conditions in past years. The results will help you decide how hot, cold, wet, or windy it might be!

Date:

Astronomy

Aug. 09, 2014 Rise Set
Actual Time 6:06 AM EDT 8:06 PM EDT
Civil Twilight 5:36 AM EDT 8:36 PM EDT
Nautical Twilight 5:00 AM EDT 9:12 PM EDT
Astronomical Twilight 4:20 AM EDT 9:52 PM EDT
Moon 7:06 PM EDT (8/9) 4:44 AM EDT (8/9)
Length of Visible Light 14h 59m
Length of Day
14h 00m
Waxing Gibbous, 98% of the Moon is Illuminated
Aug 9
Waxing Gibbous
Aug 10
Full
Aug 17
Last Quarter
Aug 25
New
Sep 2
First Quarter

Hourly Weather History & Observations

Time (EDT) Temp. Heat Index Dew Point Humidity Pressure Visibility Wind Dir Wind Speed Gust Speed Precip Events Conditions
12:10 AM 59.0 °F - 57.2 °F 94% 30.12 in 10.0 mi Calm Calm - N/A   Clear
12:35 AM 59.0 °F - 57.2 °F 94% 30.12 in 10.0 mi Calm Calm - N/A   Clear
1:15 AM 59.0 °F - 57.2 °F 94% 30.12 in 10.0 mi Calm Calm - N/A   Clear
1:30 AM 57.2 °F - 55.4 °F 94% 30.12 in 10.0 mi Calm Calm - N/A   Clear
1:50 AM 57.2 °F - 55.4 °F 94% 30.12 in 10.0 mi Calm Calm - N/A   Clear
2:15 AM 57.2 °F - 55.4 °F 94% 30.12 in 10.0 mi Calm Calm - N/A   Clear
2:30 AM 57.2 °F - 55.4 °F 94% 30.12 in 10.0 mi Calm Calm - N/A   Clear
2:55 AM 57.2 °F - 55.4 °F 94% 30.12 in 10.0 mi Calm Calm - N/A   Clear
3:10 AM 55.4 °F - 55.4 °F 100% 30.12 in 10.0 mi Calm Calm - N/A   Clear
3:35 AM 55.4 °F - 55.4 °F 100% 30.12 in 10.0 mi Calm Calm - N/A   Clear
3:50 AM 55.4 °F - 55.4 °F 100% 30.12 in 10.0 mi Calm Calm - N/A   Clear
4:15 AM 55.4 °F - 53.6 °F 94% 30.12 in 10.0 mi Calm Calm - N/A   Clear
4:30 AM 55.4 °F - 53.6 °F 94% 30.12 in 10.0 mi Calm Calm - N/A   Clear
4:55 AM 55.4 °F - 53.6 °F 94% 30.13 in 10.0 mi Calm Calm - N/A   Clear
5:10 AM 55.4 °F - 53.6 °F 94% 30.13 in 10.0 mi Calm Calm - N/A   Clear
5:30 AM 53.6 °F - 53.6 °F 100% 30.13 in 10.0 mi Calm Calm - N/A   Clear
5:55 AM 55.4 °F - 53.6 °F 94% 30.14 in 10.0 mi Calm Calm - N/A   Clear
6:10 AM 53.6 °F - 53.6 °F 100% 30.15 in 10.0 mi Calm Calm - N/A   Clear
6:35 AM 53.6 °F - 53.6 °F 100% 30.15 in 10.0 mi Calm Calm - N/A   Clear
6:55 AM 55.4 °F - 53.6 °F 94% 30.15 in 10.0 mi Calm Calm - N/A   Clear
7:10 AM 57.2 °F - 53.6 °F 88% 30.15 in 10.0 mi Calm Calm - N/A   Clear
7:35 AM 59.0 °F - 55.4 °F 88% 30.16 in 10.0 mi Calm Calm - N/A   Clear
7:50 AM 62.6 °F - 57.2 °F 82% 30.16 in 10.0 mi Calm Calm - N/A   Clear
8:15 AM 66.2 °F - 59.0 °F 78% 30.16 in 10.0 mi Calm Calm - N/A   Clear
8:30 AM 68.0 °F - 57.2 °F 68% 30.16 in 10.0 mi Calm Calm - N/A   Clear
8:55 AM 68.0 °F - 57.2 °F 68% 30.15 in 10.0 mi NNE 5.8 mph - N/A   Clear
9:10 AM 69.8 °F - 59.0 °F 68% 30.15 in 10.0 mi NNE 4.6 mph - N/A   Clear
9:35 AM 71.6 °F - 59.0 °F 64% 30.15 in 10.0 mi NNE 3.5 mph - N/A   Clear
9:50 AM 73.4 °F - 59.0 °F 61% 30.14 in 9.0 mi ENE 3.5 mph - N/A   Clear
10:15 AM 75.2 °F - 59.0 °F 57% 30.15 in 10.0 mi NNE 3.5 mph - N/A   Clear
10:30 AM 75.2 °F - 59.0 °F 57% 30.15 in 10.0 mi NE 4.6 mph - N/A   Clear
10:55 AM 77.0 °F - 59.0 °F 54% 30.15 in 10.0 mi North 3.5 mph - N/A   Clear
11:15 AM 77.0 °F - 57.2 °F 50% 30.15 in 9.0 mi NNE 4.6 mph - N/A   Clear
11:30 AM 77.0 °F - 57.2 °F 50% 30.15 in 9.0 mi NW 6.9 mph - N/A   Clear
11:55 AM 77.0 °F - 55.4 °F 47% 30.15 in 9.0 mi West 6.9 mph - N/A   Clear
12:15 PM 77.0 °F - 55.4 °F 47% 30.15 in 9.0 mi West 5.8 mph - N/A   Clear
12:30 PM 78.8 °F - 55.4 °F 44% 30.14 in 10.0 mi West 5.8 mph - N/A   Clear
1:10 PM 80.6 °F 80.3 °F 53.6 °F 39% 30.14 in 10.0 mi West 4.6 mph - N/A   Clear
1:35 PM 80.6 °F - 50.0 °F 34% 30.14 in 10.0 mi Calm Calm - N/A   Clear
1:50 PM 82.4 °F - 51.8 °F 35% 30.14 in 9.0 mi WNW 5.8 mph - N/A   Clear
2:15 PM 82.4 °F 81.4 °F 53.6 °F 37% 30.14 in 10.0 mi WNW 3.5 mph - N/A   Clear
2:30 PM 82.4 °F 81.4 °F 53.6 °F 37% 30.13 in 10.0 mi WSW 5.8 mph - N/A   Partly Cloudy
2:55 PM 82.4 °F 81.4 °F 53.6 °F 37% 30.13 in 10.0 mi NW 3.5 mph - N/A   Scattered Clouds
3:10 PM 82.4 °F 81.4 °F 53.6 °F 37% 30.12 in 9.0 mi West 4.6 mph - N/A   Partly Cloudy
3:35 PM 82.4 °F 81.4 °F 53.6 °F 37% 30.12 in 10.0 mi South 3.5 mph - N/A   Scattered Clouds
3:55 PM 80.6 °F 80.3 °F 53.6 °F 39% 30.11 in 10.0 mi Calm Calm - N/A   Scattered Clouds
4:15 PM 82.4 °F 81.4 °F 53.6 °F 37% 30.11 in 10.0 mi SW 3.5 mph - N/A   Clear
4:50 PM 80.6 °F 80.5 °F 55.4 °F 42% 30.10 in 9.0 mi NNE 4.6 mph - N/A   Mostly Cloudy
5:15 PM 82.4 °F 81.4 °F 53.6 °F 37% 30.10 in 10.0 mi East 3.5 mph - N/A   Partly Cloudy
5:55 PM 82.4 °F 81.4 °F 53.6 °F 37% 30.10 in 10.0 mi Calm Calm - N/A   Clear
6:10 PM 82.4 °F 81.4 °F 53.6 °F 37% 30.10 in 10.0 mi ESE 3.5 mph - N/A   Unknown
6:35 PM 80.6 °F 80.3 °F 53.6 °F 39% 30.10 in 10.0 mi Calm Calm - N/A   Unknown
6:50 PM 80.6 °F 80.3 °F 53.6 °F 39% 30.10 in 10.0 mi Calm Calm - N/A   Clear
7:15 PM 78.8 °F - 57.2 °F 47% 30.10 in 10.0 mi Calm Calm - N/A   Clear
7:35 PM 77.0 °F - 59.0 °F 54% 30.10 in 10.0 mi Calm Calm - N/A   Clear
7:55 PM 73.4 °F - 59.0 °F 61% 30.10 in 10.0 mi Calm Calm - N/A   Clear
8:15 PM 71.6 °F - 59.0 °F 64% 30.10 in 10.0 mi Calm Calm - N/A   Clear
8:30 PM 69.8 °F - 59.0 °F 68% 30.11 in 10.0 mi Calm Calm - N/A   Clear
8:55 PM 68.0 °F - 59.0 °F 73% 30.11 in 10.0 mi Calm Calm - N/A   Clear
9:15 PM 66.2 °F - 59.0 °F 78% 30.12 in 10.0 mi Calm Calm - N/A   Clear
9:55 PM 64.4 °F - 59.0 °F 83% 30.13 in 10.0 mi Calm Calm - N/A   Clear
10:15 PM 64.4 °F - 59.0 °F 83% 30.13 in 10.0 mi Calm Calm - N/A   Clear
10:35 PM 62.6 °F - 59.0 °F 88% 30.13 in 10.0 mi Calm Calm - N/A   Clear
10:50 PM 62.6 °F - 59.0 °F 88% 30.14 in 10.0 mi Calm Calm - N/A   Clear
11:30 PM 62.6 °F - 59.0 °F 88% 30.14 in 10.0 mi Calm Calm - N/A   Clear
11:55 PM 62.6 °F - 59.0 °F 88% 30.15 in 10.0 mi Calm Calm - N/A   Clear